Eole

operational
NORAD ID: 5435 Int'l Des: 1971-071 Owner: CNES Country: F
LEO

Über Eole

Beschreibung wird geladen...

Live-Position

3D-Globus wird geladen...

Nächste Überflüge

Höhenverlauf

Altitude vs Time

uPlot chart will show altitude changes over time

Zweizeiliger Elementsatz

1 05435U 71071A 26072.58498001 .00000893 00000-0 21080-3 0 9999
2 05435 50.1385 131.1764 0102137 187.9299 172.0020 14.60150519862025
Epoch: 13. März 2026 • Age: 21 hours

Aktueller Status

Höhe 621.8 km
Geschwindigkeit 7.59 km/s
Subsatellitenpunkt -3.82°S, 179.65°E
Typ other

Große Konstellationen

Loading constellations...